• In Moldova, Republic
  • List of Countries
  • For 7 days
  • Water Temperature
  • Satellite Maps
  • Weather Map
  • Weather Widgets
  • user-avatar
    Login

    Hourly Weather Molepolole

    Today, 18 March, Monday

    Time Temperature Precipitation Wind Pressure Humidity
    00:00 +23°C° 0 mm 0 mps 663 mmHg 42%
    01:00 +22°C° 0 mm 0 mps 663 mmHg 44%
    02:00 +21°C° 0 mm 0 mps 663 mmHg 44%
    03:00 +21°C° 0 mm 0 mps 663 mmHg 44%
    04:00 +23°C° 0 mm 1 mps 663 mmHg 44%
    05:00 +23°C° 0 mm 1 mps 663 mmHg 43%
    06:00 +24°C° 0 mm 1 mps 664 mmHg 41%
    07:00 +25°C° 0 mm 1 mps 664 mmHg 38%
    08:00 +26°C° 0 mm 1 mps 665 mmHg 32%
    09:00 +28°C° 0 mm 1 mps 665 mmHg 29%
    10:00 +30°C° 0 mm 1 mps 666 mmHg 26%
    11:00 +32°C° 0 mm 1 mps 666 mmHg 23%
    12:00 +33°C° 0 mm 1 mps 665 mmHg 22%
    13:00 +34°C° 0 mm 1 mps 665 mmHg 20%
    14:00 +35°C° 0 mm 1 mps 664 mmHg 19%
    15:00 +35°C° 0 mm 1 mps 664 mmHg 18%
    16:00 +36°C° 0 mm 2 mps 664 mmHg 18%
    17:00 +36°C° 0 mm 2 mps 663 mmHg 18%
    18:00 +33°C° 0 mm 1 mps 663 mmHg 20%
    19:00 +32°C° 0 mm 1 mps 663 mmHg 23%
    20:00 +30°C° 0 mm 1 mps 663 mmHg 25%
    21:00 +29°C° 0 mm 1 mps 663 mmHg 27%
    22:00 +28°C° 0 mm 1 mps 663 mmHg 28%
    23:00 +27°C° 0 mm 1 mps 663 mmHg 30%

    Tomorrow, 19 March, Tuesday

    Time Temperature Precipitation Wind Pressure Humidity
    00:00 +26°C° 0 mm 1 mps 662 mmHg 32%
    01:00 +24°C° 0 mm 0 mps 662 mmHg 34%
    02:00 +23°C° 0 mm 0 mps 662 mmHg 35%
    03:00 +25°C° 0 mm 1 mps 662 mmHg 36%
    04:00 +25°C° 0 mm 1 mps 662 mmHg 36%
    05:00 +24°C° 0 mm 2 mps 662 mmHg 36%
    06:00 +25°C° 0 mm 2 mps 663 mmHg 37%
    07:00 +26°C° 0 mm 3 mps 663 mmHg 38%
    08:00 +26°C° 0 mm 4 mps 664 mmHg 38%
    09:00 +29°C° 0 mm 4 mps 665 mmHg 33%
    10:00 +32°C° 0 mm 4 mps 665 mmHg 29%
    11:00 +35°C° 0 mm 4 mps 666 mmHg 24%
    12:00 +36°C° 0 mm 3 mps 665 mmHg 21%
    13:00 +37°C° 0 mm 2 mps 665 mmHg 19%
    14:00 +37°C° 0 mm 1 mps 664 mmHg 16%
    15:00 +37°C° 0 mm 1 mps 664 mmHg 18%
    16:00 +36°C° 0 mm 1 mps 663 mmHg 20%
    17:00 +35°C° 0 mm 1 mps 663 mmHg 22%
    18:00 +33°C° 0 mm 1 mps 663 mmHg 24%
    19:00 +28°C° 0 mm 0 mps 662 mmHg 27%
    20:00 +26°C° 0 mm 0 mps 662 mmHg 29%
    21:00 +28°C° 0 mm 1 mps 662 mmHg 29%
    22:00 +28°C° 0 mm 1 mps 662 mmHg 28%
    23:00 +28°C° 0 mm 2 mps 663 mmHg 28%

    Day after tomorrow, 20 March, Wednesday

    Time Temperature Precipitation Wind Pressure Humidity
    00:00 +28°C° 0 mm 2 mps 663 mmHg 28%
    01:00 +28°C° 0 mm 2 mps 663 mmHg 28%
    02:00 +28°C° 0 mm 1 mps 663 mmHg 28%
    03:00 +27°C° 0 mm 2 mps 663 mmHg 31%
    04:00 +26°C° 0 mm 2 mps 663 mmHg 34%
    05:00 +24°C° 0 mm 3 mps 662 mmHg 37%
    06:00 +25°C° 0 mm 2 mps 663 mmHg 38%
    07:00 +26°C° 0 mm 2 mps 664 mmHg 39%
    08:00 +27°C° 0 mm 2 mps 664 mmHg 39%
    09:00 +29°C° 0 mm 2 mps 665 mmHg 35%
    10:00 +31°C° 0 mm 2 mps 665 mmHg 30%
    11:00 +35°C° 0 mm 2 mps 665 mmHg 25%
    12:00 +36°C° 0 mm 2 mps 665 mmHg 22%
    13:00 +37°C° 0 mm 2 mps 664 mmHg 18%
    14:00 +37°C° 0 mm 1 mps 664 mmHg 14%
    15:00 +38°C° 0 mm 2 mps 664 mmHg 14%
    16:00 +38°C° 0 mm 2 mps 663 mmHg 13%
    17:00 +38°C° 0 mm 2 mps 663 mmHg 13%
    18:00 +36°C° 0 mm 2 mps 663 mmHg 14%
    19:00 +32°C° 0 mm 2 mps 662 mmHg 16%
    20:00 +30°C° 0 mm 2 mps 662 mmHg 17%
    21:00 +29°C° 0 mm 3 mps 663 mmHg 18%
    22:00 +28°C° 0 mm 3 mps 663 mmHg 18%
    23:00 +28°C° 0 mm 4 mps 663 mmHg 18%

    21 March, Thursday

    Time Temperature Precipitation Wind Pressure Humidity
    00:00 +27°C° 0 mm 4 mps 663 mmHg 17%
    01:00 +26°C° 0 mm 4 mps 663 mmHg 16%
    02:00 +26°C° 0 mm 4 mps 663 mmHg 14%
    03:00 +25°C° 0 mm 4 mps 662 mmHg 15%
    04:00 +23°C° 0 mm 4 mps 662 mmHg 15%
    05:00 +22°C° 0 mm 3 mps 662 mmHg 16%
    06:00 +24°C° 0 mm 3 mps 663 mmHg 17%
    07:00 +25°C° 0 mm 2 mps 663 mmHg 17%
    08:00 +26°C° 0 mm 2 mps 664 mmHg 18%
    09:00 +29°C° 0 mm 1 mps 664 mmHg 16%
    10:00 +31°C° 0 mm 1 mps 665 mmHg 14%
    11:00 +34°C° 0 mm 1 mps 665 mmHg 12%
    12:00 +36°C° 0 mm 2 mps 665 mmHg 10%
    13:00 +37°C° 0 mm 3 mps 664 mmHg 9%
    14:00 +38°C° 0 mm 4 mps 664 mmHg 8%
    15:00 +38°C° 0 mm 4 mps 663 mmHg 8%
    16:00 +38°C° 0 mm 4 mps 663 mmHg 8%
    17:00 +39°C° 0 mm 5 mps 662 mmHg 8%
    18:00 +35°C° 0 mm 4 mps 662 mmHg 9%
    19:00 +31°C° 0 mm 3 mps 662 mmHg 11%
    20:00 +29°C° 0 mm 2 mps 662 mmHg 13%
    21:00 +28°C° 0 mm 3 mps 663 mmHg 13%
    22:00 +27°C° 0 mm 3 mps 663 mmHg 14%
    23:00 +26°C° 0 mm 3 mps 663 mmHg 14%

    22 March, Friday

    Time Temperature Precipitation Wind Pressure Humidity
    00:00 +26°C° 0 mm 3 mps 663 mmHg 15%
    01:00 +25°C° 0 mm 3 mps 663 mmHg 16%
    02:00 +25°C° 0 mm 4 mps 662 mmHg 17%
    03:00 +24°C° 0 mm 3 mps 662 mmHg 20%
    04:00 +22°C° 0 mm 3 mps 662 mmHg 23%
    05:00 +21°C° 0 mm 2 mps 662 mmHg 25%
    06:00 +22°C° 0 mm 3 mps 663 mmHg 32%
    07:00 +23°C° 0 mm 4 mps 663 mmHg 39%
    08:00 +25°C° 0 mm 5 mps 664 mmHg 46%
    09:00 +28°C° 0 mm 5 mps 665 mmHg 41%
    10:00 +30°C° 0 mm 5 mps 666 mmHg 36%
    11:00 +34°C° 0 mm 5 mps 666 mmHg 31%
    12:00 +35°C° 0 mm 4 mps 666 mmHg 26%
    13:00 +36°C° 0 mm 4 mps 665 mmHg 21%
    14:00 +38°C° 0 mm 3 mps 665 mmHg 16%
    15:00 +37°C° 0 mm 3 mps 665 mmHg 17%
    16:00 +37°C° 0 mm 3 mps 665 mmHg 17%
    17:00 +36°C° 0 mm 3 mps 664 mmHg 17%
    18:00 +34°C° 0 mm 3 mps 664 mmHg 24%
    19:00 +31°C° 0 mm 3 mps 664 mmHg 31%
    20:00 +29°C° 0 mm 3 mps 664 mmHg 38%
    21:00 +27°C° 0.6 mm 5 mps 665 mmHg 49%
    22:00 +24°C° 0.6 mm 7 mps 665 mmHg 61%
    23:00 +23°C° 0.6 mm 8 mps 666 mmHg 73%

    23 March, Saturday

    Time Temperature Precipitation Wind Pressure Humidity
    00:00 +22°C° 0 mm 8 mps 666 mmHg 74%
    01:00 +21°C° 0 mm 7 mps 666 mmHg 76%
    02:00 +21°C° 0 mm 7 mps 666 mmHg 78%
    03:00 +21°C° 0 mm 7 mps 666 mmHg 78%
    04:00 +20°C° 0 mm 7 mps 666 mmHg 78%
    05:00 +20°C° 0 mm 7 mps 666 mmHg 78%
    06:00 +20°C° 0 mm 7 mps 667 mmHg 77%
    07:00 +20°C° 0 mm 7 mps 667 mmHg 76%
    08:00 +20°C° 0 mm 7 mps 667 mmHg 76%
    09:00 +21°C° 0 mm 7 mps 667 mmHg 73%
    10:00 +22°C° 0 mm 7 mps 667 mmHg 69%
    11:00 +22°C° 0 mm 7 mps 667 mmHg 66%
    12:00 +24°C° 0 mm 7 mps 667 mmHg 59%
    13:00 +28°C° 0 mm 7 mps 667 mmHg 51%
    14:00 +30°C° 0 mm 7 mps 667 mmHg 43%
    15:00 +30°C° 0 mm 6 mps 667 mmHg 43%
    16:00 +29°C° 0 mm 6 mps 666 mmHg 43%
    17:00 +29°C° 0 mm 6 mps 666 mmHg 42%
    18:00 +28°C° 0 mm 5 mps 666 mmHg 47%
    19:00 +26°C° 0 mm 5 mps 666 mmHg 52%
    20:00 +23°C° 0 mm 5 mps 666 mmHg 57%
    21:00 +23°C° 0.1 mm 4 mps 666 mmHg 60%
    22:00 +22°C° 0.1 mm 4 mps 667 mmHg 63%
    23:00 +21°C° 0.1 mm 4 mps 667 mmHg 66%
    Show more